Вернуться в каталог

COSMOS 1275 DEB

АктивенPO
NORAD 12667·DEBRIS·🇷🇺 Russia

Запущен Jun 4, 1981 с Plesetsk Cosmodrome

Loading…

Ближайшие Пролёты (ближайшие 24 часа)

TLE

СвежийSource: Space-Track

Эпоха: Sep 14, 2026, 14:14 UTC

1 12667U 81053X   26257.59320708  .00000347  00000-0  29874-3 0  9992
2 12667  82.8377 309.6109 0035292 174.3776 339.2818 13.83695699266897

Отслеживайте COSMOS 1275 DEB в реальном времени с AllMySat

Download on the App Store